KC4KQE Weather Reports


Display with metric or nautical units.
time (UTC)temp
F
wind
direction
speed
MPH
gust
MPH
rain 1hr
in
rain 24hr
in
rain mn
in
humidity
%
barometer
mb
20260505034916 71 110 14.0 17.0 0.00 0.00 0.00 33 1012.5
20260505034416 71 110 11.0 21.0 0.00 0.00 0.00 33 1012.4
20260505033916 72 110 10.0 19.0 0.00 0.00 0.00 32 1012.5
20260505033417 73 110 7.0 16.0 0.00 0.00 0.00 31 1012.2
20260505032916 73 110 9.0 13.0 0.00 0.00 0.00 31 1012.0
20260505032416 73 110 3.0 10.0 0.00 0.00 0.00 30 1012.0
20260505031916 73 110 3.0 13.0 0.00 0.00 0.00 30 1012.0
20260505031416 73 110 7.0 15.0 0.00 0.00 0.00 30 1011.9
20260505030917 73 110 10.0 15.0 0.00 0.00 0.00 30 1011.9
20260505030416 73 110 8.0 15.0 0.00 0.00 0.00 31 1011.8
20260505025916 73 110 7.0 15.0 0.00 0.00 0.00 31 1011.9
20260505025417 73 110 10.0 16.0 0.00 0.00 0.00 31 1011.8
20260505024916 74 110 13.0 16.0 0.00 0.00 0.00 31 1011.7
20260505024416 74 110 4.0 10.0 0.00 0.00 0.00 34 1011.9
20260505023917 74 110 5.0 8.0 0.00 0.00 0.00 37 1011.9
20260505023416 74 110 7.0 7.0 0.00 0.00 0.00 37 1012.0
20260505022916 74 110 2.0 8.0 0.00 0.00 0.00 37 1012.0
20260505022417 74 110 3.0 5.0 0.00 0.00 0.00 37 1011.9
20260505021916 74 110 2.0 5.0 0.00 0.00 0.00 37 1011.8
20260505021416 74 110 2.0 8.0 0.00 0.00 0.00 37 1011.6
20260505020918 74 110 1.0 7.0 0.00 0.00 0.00 37 1011.5
20260505020416 74 110 0.0 4.0 0.00 0.00 0.00 37 1011.4
20260505015916 74 110 3.0 5.0 0.00 0.00 0.00 37 1011.3
20260505015416 74 110 3.0 5.0 0.00 0.00 0.00 37 1011.1
20260505014916 74 110 4.0 7.0 0.00 0.00 0.00 37 1011.1
20260505014417 74 110 3.0 7.0 0.00 0.00 0.00 37 1011.2
20260505013916 75 110 3.0 9.0 0.00 0.00 0.00 36 1011.3
20260505013416 75 110 4.0 8.0 0.00 0.00 0.00 36 1011.5
20260505012916 75 110 4.0 7.0 0.00 0.00 0.00 36 1011.3
20260505012416 75 110 2.0 4.0 0.00 0.00 0.00 36 1011.3
20260505011916 75 110 3.0 7.0 0.00 0.00 0.00 36 1011.3
20260505011416 75 110 5.0 7.0 0.00 0.00 0.00 36 1011.3
20260505010917 75 110 4.0 8.0 0.00 0.00 0.00 36 1011.3
20260505010416 75 110 3.0 8.0 0.00 0.00 0.00 36 1011.3
20260505005916 75 110 5.0 9.0 0.00 0.00 0.00 36 1011.3
20260505005417 75 110 5.0 7.0 0.00 0.00 0.00 36 1011.2
20260505004917 75 110 2.0 7.0 0.00 0.00 0.00 36 1011.2
20260505004416 75 110 3.0 9.0 0.00 0.00 0.00 36 1011.4
20260505003916 76 110 3.0 8.0 0.00 0.00 0.00 35 1011.5
20260505003416 76 110 4.0 7.0 0.00 0.00 0.00 36 1011.5
20260505002916 76 110 5.0 5.0 0.00 0.00 0.00 35 1011.4
20260505002416 76 110 2.0 7.0 0.00 0.00 0.00 35 1011.5
20260505001916 76 110 5.0 9.0 0.00 0.00 0.00 34 1011.6
20260505001416 76 110 5.0 11.0 0.00 0.00 0.00 35 1011.7
20260505000916 76 110 5.0 11.0 0.00 0.00 0.00 35 1011.7
20260505000416 77 110 5.0 9.0 0.00 0.00 0.00 34 1011.8
20260504235916 77 110 7.0 12.0 0.00 0.00 0.00 32 1011.7
20260504235417 77 110 3.0 8.0 0.00 0.00 0.00 33 1011.6
20260504234916 77 110 4.0 9.0 0.00 0.00 0.00 33 1011.6
20260504234416 77 110 5.0 8.0 0.00 0.00 0.00 33 1011.5
20260504233916 77 110 2.0 9.0 0.00 0.00 0.00 32 1011.5
20260504233416 77 110 4.0 9.0 0.00 0.00 0.00 32 1011.4
20260504232916 77 110 3.0 9.0 0.00 0.00 0.00 32 1011.4
20260504232416 77 110 2.0 10.0 0.00 0.00 0.00 32 1011.5
20260504231917 77 110 5.0 10.0 0.00 0.00 0.00 32 1011.5
20260504231416 77 110 5.0 11.0 0.00 0.00 0.00 32 1011.5
20260504230916 77 110 8.0 11.0 0.00 0.00 0.00 32 1011.7
20260504230416 77 110 7.0 13.0 0.00 0.00 0.00 32 1011.7
20260504225916 77 110 5.0 13.0 0.00 0.00 0.00 32 1011.7
20260504225417 77 110 4.0 13.0 0.00 0.00 0.00 32 1011.8
20260504224916 77 110 9.0 12.0 0.00 0.00 0.00 32 1011.8
20260504224416 77 110 4.0 11.0 0.00 0.00 0.00 33 1011.8
20260504223917 77 110 9.0 12.0 0.00 0.00 0.00 33 1011.8
20260504223416 77 110 11.0 11.0 0.00 0.00 0.00 33 1011.8
20260504222916 77 110 11.0 13.0 0.00 0.00 0.00 34 1011.8
20260504222416 77 110 11.0 13.0 0.00 0.00 0.00 33 1011.7
20260504221917 77 110 4.0 7.0 0.00 0.00 0.00 34 1011.8
20260504221416 77 110 3.0 10.0 0.00 0.00 0.00 34 1011.9
20260504220916 77 110 7.0 10.0 0.00 0.00 0.00 34 1012.0
20260504220416 77 110 10.0 12.0 0.00 0.00 0.00 34 1012.1
20260504215916 77 110 4.0 14.0 0.00 0.00 0.00 34 1012.5
20260504215416 77 110 3.0 12.0 0.00 0.00 0.00 34 1012.6
20260504214917 77 110 8.0 14.0 0.00 0.00 0.00 34 1012.7
20260504214416 77 110 8.0 13.0 0.00 0.00 0.00 34 1012.9
20260504213916 77 110 5.0 12.0 0.00 0.00 0.00 33 1013.0
20260504213416 78 110 3.0 12.0 0.00 0.00 0.00 33 1013.0
20260504212916 78 110 11.0 13.0 0.00 0.00 0.00 33 1013.0
20260504212416 78 110 7.0 13.0 0.00 0.00 0.00 33 1012.9
20260504211916 78 110 9.0 14.0 0.00 0.00 0.00 33 1012.9
20260504211416 78 110 12.0 16.0 0.00 0.00 0.00 33 1012.9
20260504210916 78 110 3.0 14.0 0.00 0.00 0.00 33 1012.8
20260504210417 79 110 8.0 17.0 0.00 0.00 0.00 33 1012.7
20260504205916 78 110 8.0 11.0 0.00 0.00 0.00 33 1012.8
20260504205416 79 110 9.0 14.0 0.00 0.00 0.00 32 1012.7
20260504204916 79 110 5.0 15.0 0.00 0.00 0.00 32 1012.5
20260504204416 79 110 10.0 12.0 0.00 0.00 0.00 32 1012.7
20260504203916 79 110 9.0 15.0 0.00 0.00 0.00 32 1012.7
20260504203416 79 110 7.0 11.0 0.00 0.00 0.00 32 1012.7
20260504202916 78 110 7.0 12.0 0.00 0.00 0.00 33 1012.8
20260504202417 78 110 10.0 16.0 0.00 0.00 0.00 33 1012.7
20260504201916 78 110 9.0 14.0 0.00 0.00 0.00 32 1012.6
20260504201415 77 110 5.0 8.0 0.00 0.00 0.00 33 1012.7
20260504200916 78 110 7.0 12.0 0.00 0.00 0.00 32 1012.8
20260504200416 78 110 11.0 13.0 0.00 0.00 0.00 32 1013.0
20260504195916 79 110 8.0 13.0 0.00 0.00 0.00 30 1013.1
20260504195416 79 110 7.0 19.0 0.00 0.00 0.00 29 1013.1
20260504194916 79 110 10.0 16.0 0.00 0.00 0.00 29 1013.2
20260504194416 79 110 10.0 18.0 0.00 0.00 0.00 30 1013.1
20260504193916 79 110 12.0 16.0 0.00 0.00 0.00 29 1013.1
20260504193416 80 110 11.0 14.0 0.00 0.00 0.00 29 1013.1
20260504192916 80 110 4.0 14.0 0.00 0.00 0.00 29 1012.9
20260504192416 80 110 8.0 17.0 0.00 0.00 0.00 29 1012.9
20260504191916 79 110 10.0 12.0 0.00 0.00 0.00 31 1012.7
20260504191416 79 110 11.0 12.0 0.00 0.00 0.00 31 1012.7
20260504190915 79 110 9.0 17.0 0.00 0.00 0.00 30 1012.6
20260504190415 79 110 4.0 15.0 0.00 0.00 0.00 30 1012.6
20260504185916 79 110 7.0 13.0 0.00 0.00 0.00 30 1012.6
20260504185416 78 110 7.0 15.0 0.00 0.00 0.00 30 1012.8
20260504184916 79 110 9.0 14.0 0.00 0.00 0.00 30 1013.0
20260504184416 78 110 15.0 17.0 0.00 0.00 0.00 30 1013.1
20260504183916 78 110 8.0 13.0 0.00 0.00 0.00 30 1013.0
20260504183417 77 110 14.0 18.0 0.00 0.00 0.00 30 1013.1
20260504182915 78 110 11.0 17.0 0.00 0.00 0.00 29 1012.9
20260504182416 78 110 8.0 22.0 0.00 0.00 0.00 29 1013.0
20260504181916 77 110 8.0 16.0 0.00 0.00 0.00 30 1013.1
20260504181416 77 110 7.0 14.0 0.00 0.00 0.00 30 1012.9
20260504180917 77 110 4.0 13.0 0.00 0.00 0.00 30 1012.9
20260504180415 78 110 8.0 16.0 0.00 0.00 0.00 29 1012.8
20260504175915 77 110 3.0 14.0 0.00 0.00 0.00 30 1013.0
20260504175416 77 110 3.0 15.0 0.00 0.00 0.00 29 1013.0
20260504174916 77 110 4.0 14.0 0.00 0.00 0.00 31 1013.2
20260504174416 77 110 7.0 13.0 0.00 0.00 0.00 30 1013.1
20260504173915 78 110 2.0 15.0 0.00 0.00 0.00 28 1013.2
20260504173416 78 110 10.0 19.0 0.00 0.00 0.00 29 1013.3
20260504172916 78 110 12.0 22.0 0.00 0.00 0.00 25 1013.4
20260504172416 78 110 8.0 19.0 0.00 0.00 0.00 28 1013.6
20260504171916 77 110 8.0 13.0 0.00 0.00 0.00 30 1013.7
20260504171416 77 110 4.0 14.0 0.00 0.00 0.00 31 1013.5
20260504170916 77 110 13.0 16.0 0.00 0.00 0.00 31 1013.6
20260504170416 78 110 10.0 16.0 0.00 0.00 0.00 30 1013.6
20260504160416 75 110 7.0 12.0 0.00 0.00 0.00 38 1013.5
20260504150916 73 110 9.0 10.0 0.00 0.00 0.00 41 1013.0
20260504150415 73 110 5.0 12.0 0.00 0.00 0.00 41 1012.9
20260504140915 72 110 2.0 7.0 0.00 0.00 0.00 41 1012.7
20260504140415 72 110 4.0 7.0 0.00 0.00 0.00 41 1012.7
20260504130417 71 110 0.0 4.0 0.00 0.00 0.00 41 1012.1
20260504110415 71 110 1.0 3.0 0.00 0.00 0.00 41 1011.9
20260504100417 73 110 4.0 8.0 0.00 0.00 0.00 40 1012.3
20260504081915 72 110 0.0 2.0 0.00 0.00 0.00 38 1011.7
20260504081416 73 110 0.0 1.0 0.00 0.00 0.00 38 1011.7
20260504080916 73 110 0.0 2.0 0.00 0.00 0.00 38 1011.8
20260504080415 73 110 0.0 0.0 0.00 0.00 0.00 38 1011.8
20260504050416 78 110 8.0 11.0 0.00 0.00 0.00 23 1011.9
20260504045915 79 110 3.0 9.0 0.00 0.00 0.00 23 1011.8
20260504045415 79 110 4.0 9.0 0.00 0.00 0.00 23 1011.7
20260504044916 79 110 2.0 11.0 0.00 0.00 0.00 23 1011.8
20260504044415 79 110 5.0 11.0 0.00 0.00 0.00 22 1011.8
20260504043915 79 110 7.0 9.0 0.00 0.00 0.00 22 1011.6
20260504043415 80 110 7.0 13.0 0.00 0.00 0.00 22 1011.4
20260504042915 80 110 1.0 12.0 0.00 0.00 0.00 21 1011.5
20260504042416 80 110 5.0 15.0 0.00 0.00 0.00 21 1011.3
20260504041916 80 110 8.0 18.0 0.00 0.00 0.00 21 1011.2
20260504041416 81 110 8.0 10.0 0.00 0.00 0.00 20 1011.2
20260504040915 81 110 5.0 15.0 0.00 0.00 0.00 20 1011.1
20260504040415 81 110 4.0 10.0 0.00 0.00 0.00 19 1011.0
20260504035916 81 110 4.0 15.0 0.00 0.00 0.00 19 1010.8
20260504035416 81 110 5.0 12.0 0.00 0.00 0.00 19 1010.7